This is the latest recevied weather packets stored in our database for station/object EA1CZ-10. If no packets are shown the sender has not sent any weather packets the latest 10 day(s).
| Time | Temp. | Humidity | Pressure | Rain* | Wind** | Luminosity | Snow |
|---|---|---|---|---|---|---|---|
| 1788471600 | 21.67° C | 47% | 1039.9 hPa | - | - | - | - |
| 1788469799 | 21.67° C | 47% | 1040 hPa | - | - | - | - |
| 1788467999 | 21.67° C | 47% | 1040 hPa | - | - | - | - |
| 1788466199 | 21.67° C | 46% | 1040 hPa | - | - | - | - |
| 1788464399 | 21.11° C | 46% | 1039.6 hPa | - | - | - | - |
| 1788462599 | 21.67° C | 45% | 1039.7 hPa | - | - | - | - |
| 1788460799 | 22.78° C | 44% | 1039.5 hPa | - | - | - | - |
| 1788458999 | 24.44° C | 43% | 1039.5 hPa | - | - | - | - |
| 1788457199 | 26.67° C | 41% | 1039.7 hPa | - | - | - | - |
| 1788455398 | 27.78° C | 40% | 1039.7 hPa | - | - | - | - |
| 1788451803 | 30.56° C | 39% | 1039.6 hPa | - | - | - | - |
| 1788450003 | 32.22° C | 38% | 1039.9 hPa | - | - | - | - |
| 1788448203 | 31.67° C | 38% | 1039.9 hPa | - | - | - | - |
| 1788446403 | 31.11° C | 39% | 1040 hPa | - | - | - | - |
| 1788444603 | 32.22° C | 39% | 1040.2 hPa | - | - | - | - |
| 1788442803 | 32.78° C | 39% | 1040.3 hPa | - | - | - | - |
| 1788441002 | 30° C | 41% | 1040.2 hPa | - | - | - | - |
| 1788439202 | 27.22° C | 43% | 1040.3 hPa | - | - | - | - |
| 1788437402 | 27.22° C | 44% | 1040.4 hPa | - | - | - | - |
| 1788435602 | 27.78° C | 45% | 1040.5 hPa | - | - | - | - |
| 1788433802 | 27.78° C | 46% | 1040.6 hPa | - | - | - | - |
| 1788432002 | 26.11° C | 48% | 1040.7 hPa | - | - | - | - |
| 1788430202 | 26.11° C | 48% | 1040.7 hPa | - | - | - | - |
| 1788428402 | 25° C | 50% | 1040.6 hPa | - | - | - | - |
| 1788426601 | 23.33° C | 51% | 1040.5 hPa | - | - | - | - |
* Rain since midnight (hover to see other rain measurements)
** Current wind speed in m/s (hover to see current wind gust speed)